To NAV CANADA Home Page Login to a new session Search on AWWS site Feedback and Comments Disclaimer Vers la page française équivalente Tips FAQ What's new on the site To the Forecasts and Observations / NOTAM section To "File a Flight Plan" website Publications and other links Update of the User's profile FIC Telephone Numbers My Weather Data Folder Route Weather Data Regional Weather Data Local Weather Data To the Forecasts and Observations / NOTAM section
Request Generated 07/01/2015 at 04:49:20 UTC . Weather information available at that time is displayed.

METAR/TAF

MARYS HARBOUR/NL    (show WxCam)

METAR CYMH 010400Z AUTO 06003KT 9SM BKN065 OVC088 09/08 A2983 RMK
SLP101=
METAR CYMH 010300Z AUTO 00000KT 9SM BKN027 OVC090 10/09 A2982 RMK
SLP098=
METAR CYMH 010200Z AUTO 06002KT 9SM SCT027 OVC090 10/08 A2981 RMK
SLP095=

*** REMARK        : Forecast period has ended; this was the last TAF issued
*** REMARQUE : La période de prévision est échue; ceci était le dernier TAF qui a été émis
TAF CYMH 301941Z 3020/0103 14008KT P6SM SCT015 OVC025 TEMPO 3020/0103
SCT006 BKN020 OVC025
BECMG 0101/0103 VRB03KT
RMK FCST BASED ON AUTO OBS. NXT FCST WILL BE ISSUED AT 010845Z=
Your time UTC time
Weather data provided by Environment Canada and NAV CANADA